Satellite: AUBIESAT Catalog number: 37854 Epoch time: 13190.57053933 Element set: 534 Inclination: 101.7132 deg RA of node: 055.4969 deg Eccentricity: 0.0234031 Arg of perigee: 321.9421 deg Mean anomaly: 096.0181 deg Mean motion: 14.84594030 rev/day Decay rate: 3.779e-05 rev/day^2 Epoch rev: 9178 Checksum: 298
Satellite: HRBE Catalog number: 37855 Epoch time: 13190.57846561 Element set: 537 Inclination: 101.7134 deg RA of node: 055.2523 deg Eccentricity: 0.0235141 Arg of perigee: 322.4256 deg Mean anomaly: 087.7502 deg Mean motion: 14.84244032 rev/day Decay rate: 3.227e-05 rev/day^2 Epoch rev: 9177 Checksum: 285
Satellite: RS-39 Catalog number: 38051 Epoch time: 13192.76505435 Element set: 594 Inclination: 051.6359 deg RA of node: 091.8849 deg Eccentricity: 0.0010731 Arg of perigee: 001.8014 deg Mean anomaly: 054.9874 deg Mean motion: 15.33345848 rev/day Decay rate: 1.2969e-04 rev/day^2 Epoch rev: 8155 Checksum: 327
Satellite: E-STAR Catalog number: 38079 Epoch time: 13192.85275961 Element set: 276 Inclination: 069.4727 deg RA of node: 123.4248 deg Eccentricity: 0.0601137 Arg of perigee: 104.4712 deg Mean anomaly: 262.3385 deg Mean motion: 14.48938212 rev/day Decay rate: 6.0654e-04 rev/day^2 Epoch rev: 7331 Checksum: 311
Satellite: GOLIAT Catalog number: 38085 Epoch time: 13192.91181576 Element set: 201 Inclination: 069.4726 deg RA of node: 125.6504 deg Eccentricity: 0.0610381 Arg of perigee: 105.4709 deg Mean anomaly: 343.0477 deg Mean motion: 14.46663820 rev/day Decay rate: 4.1913e-04 rev/day^2 Epoch rev: 7325 Checksum: 293
Satellite: HORYU-2 Catalog number: 38340 Epoch time: 13192.38752081 Element set: 544 Inclination: 098.2173 deg RA of node: 140.2517 deg Eccentricity: 0.0012513 Arg of perigee: 170.9333 deg Mean anomaly: 189.2103 deg Mean motion: 14.71011937 rev/day Decay rate: 8.53e-06 rev/day^2 Epoch rev: 6167 Checksum: 275
Satellite: RS-40 Catalog number: 38736 Epoch time: 13192.78561692 Element set: 316 Inclination: 082.4799 deg RA of node: 139.7906 deg Eccentricity: 0.0020045 Arg of perigee: 275.1246 deg Mean anomaly: 084.7545 deg Mean motion: 12.42869071 rev/day Decay rate: 1.0e-07 rev/day^2 Epoch rev: 4330 Checksum: 308
Satellite: PROITERES Catalog number: 38756 Epoch time: 13192.88819619 Element set: 927 Inclination: 098.2528 deg RA of node: 270.3856 deg Eccentricity: 0.0013434 Arg of perigee: 032.9889 deg Mean anomaly: 327.2131 deg Mean motion: 14.74263060 rev/day Decay rate: 4.91e-06 rev/day^2 Epoch rev: 4503 Checksum: 319
Satellite: RAIKO Catalog number: 38852 Epoch time: 13192.72298513 Element set: 277 Inclination: 051.6376 deg RA of node: 320.1930 deg Eccentricity: 0.0004301 Arg of perigee: 010.4264 deg Mean anomaly: 349.7348 deg Mean motion: 15.91185761 rev/day Decay rate: 2.89160e-03 rev/day^2 Epoch rev: 4377 Checksum: 301
Satellite: FITSAT 1 Catalog number: 38853 Epoch time: 13184.86912902 Element set: 315 Inclination: 051.6252 deg RA of node: 351.6077 deg Eccentricity: 0.0011722 Arg of perigee: 245.9321 deg Mean anomaly: 114.2104 deg Mean motion: 16.39337660 rev/day Decay rate: 6.638326e-02 rev/day^2 Epoch rev: 4270 Checksum: 289
Satellite: TechEdSat Catalog number: 38854 Epoch time: 13124.93253577 Element set: 290 Inclination: 051.6449 deg RA of node: 297.0261 deg Eccentricity: 0.0010505 Arg of perigee: 310.8629 deg Mean anomaly: 049.0629 deg Mean motion: 16.38844728 rev/day Decay rate: 1.1592855e-01 rev/day^2 Epoch rev: 3329 Checksum: 325
Satellite: F 1 Catalog number: 38855 Epoch time: 13129.77714356 Element set: 287 Inclination: 051.5085 deg RA of node: 272.4145 deg Eccentricity: 0.0008326 Arg of perigee: 194.2908 deg Mean anomaly: 166.5495 deg Mean motion: 16.49710473 rev/day Decay rate: 2.7424026e-01 rev/day^2 Epoch rev: 3394 Checksum: 332
Satellite: WeWish Catalog number: 38856 Epoch time: 13069.98095549 Element set: 248 Inclination: 051.6166 deg RA of node: 215.0521 deg Eccentricity: 0.0008325 Arg of perigee: 316.0438 deg Mean anomaly: 044.8765 deg Mean motion: 16.41348316 rev/day Decay rate: 1.6701328e-01 rev/day^2 Epoch rev: 2458 Checksum: 318
Satellite: OSSI-1 Catalog number: 39131 Epoch time: 13188.41684431 Element set: 8 Inclination: 064.8841 deg RA of node: 114.8425 deg Eccentricity: 0.0051126 Arg of perigee: 026.6892 deg Mean anomaly: 350.0589 deg Mean motion: 16.22925119 rev/day Decay rate: 1.502874e-02 rev/day^2 Epoch rev: 1237 Checksum: 296
Satellite: BEESAT-3 Catalog number: 39134 Epoch time: 13192.88684080 Element set: 213 Inclination: 064.8776 deg RA of node: 131.0002 deg Eccentricity: 0.0010742 Arg of perigee: 204.1358 deg Mean anomaly: 228.2479 deg Mean motion: 15.00495534 rev/day Decay rate: 3.636e-05 rev/day^2 Epoch rev: 1253 Checksum: 277
Satellite: BEESAT-2 Catalog number: 39136 Epoch time: 13192.30053117 Element set: 192 Inclination: 064.8775 deg RA of node: 132.8426 deg Eccentricity: 0.0010791 Arg of perigee: 204.4036 deg Mean anomaly: 298.1572 deg Mean motion: 15.00446858 rev/day Decay rate: 3.121e-05 rev/day^2 Epoch rev: 1244 Checksum: 274
/EX
participants (1)
-
Ray Hoad